| time (UTC) | temp F | wind direction | speed MPH | gust MPH | rain 1hr in | rain 24hr in | rain mn in | humidity % | barometer mb |
| 20260510090833 | 50 | 13 | 0.0 | 0.0 | 0.00 | 0.00 | 0.00 | 92 | 1011.9 |
| 20260510085817 | 50 | 13 | 0.0 | 0.0 | 0.00 | 0.00 | 0.00 | 92 | 1012.1 |
| 20260510084858 | 50 | 13 | 0.0 | 0.0 | 0.00 | 0.00 | 0.00 | 92 | 1012.0 |
| 20260510083821 | 50 | 13 | 0.0 | 0.0 | 0.00 | 0.00 | 0.00 | 91 | 1012.0 |
| 20260510082832 | 50 | 15 | 0.0 | 0.0 | 0.00 | 0.00 | 0.00 | 91 | 1012.1 |
| 20260510081824 | 50 | 15 | 0.0 | 0.0 | 0.00 | 0.00 | 0.00 | 91 | 1012.2 |
| 20260510080815 | 50 | 15 | 0.0 | 0.0 | 0.00 | 0.00 | 0.00 | 92 | 1012.0 |
| 20260510075820 | 50 | 14 | 0.0 | 3.0 | 0.00 | 0.00 | 0.00 | 92 | 1012.0 |
| 20260510074832 | 50 | 143 | 1.0 | 4.0 | 0.00 | 0.00 | 0.00 | 92 | 1011.9 |
| 20260510073824 | 49 | 82 | 2.0 | 9.0 | 0.00 | 0.00 | 0.00 | 91 | 1011.8 |
| 20260510072836 | 49 | 12 | 1.0 | 5.0 | 0.00 | 0.00 | 0.00 | 91 | 1012.2 |
| 20260510071843 | 49 | 11 | 0.0 | 0.0 | 0.00 | 0.00 | 0.00 | 92 | 1011.5 |
| 20260510070815 | 49 | 317 | 0.0 | 3.0 | 0.00 | 0.00 | 0.00 | 91 | 1011.5 |
| 20260510065850 | 48 | 26 | 0.0 | 0.0 | 0.00 | 0.00 | 0.00 | 90 | 1011.5 |
| 20260510064821 | 49 | 216 | 0.0 | 0.0 | 0.00 | 0.00 | 0.00 | 91 | 1011.1 |
| 20260510063833 | 48 | 216 | 0.0 | 0.0 | 0.00 | 0.00 | 0.00 | 90 | 1011.1 |
| 20260510062844 | 48 | 215 | 0.0 | 0.0 | 0.00 | 0.00 | 0.00 | 90 | 1011.2 |
| 20260510061834 | 48 | 215 | 0.0 | 0.0 | 0.00 | 0.00 | 0.00 | 90 | 1011.0 |
| 20260510060816 | 49 | 215 | 0.0 | 0.0 | 0.00 | 0.00 | 0.00 | 90 | 1011.1 |
| 20260510055830 | 49 | 215 | 0.0 | 0.0 | 0.00 | 0.00 | 0.00 | 90 | 1011.0 |
| 20260510054814 | 49 | 215 | 0.0 | 0.0 | 0.00 | 0.00 | 0.00 | 90 | 1011.1 |
| 20260510053834 | 49 | 215 | 0.0 | 0.0 | 0.00 | 0.00 | 0.00 | 89 | 1011.1 |
| 20260510052816 | 50 | 360 | 0.0 | 0.0 | 0.00 | 0.00 | 0.00 | 89 | 1011.1 |
| 20260510051858 | 50 | 360 | 0.0 | 0.0 | 0.00 | 0.00 | 0.00 | 89 | 1011.2 |
| 20260510050818 | 50 | 215 | 0.0 | 0.0 | 0.00 | 0.00 | 0.00 | 89 | 1011.3 |
| 20260510045830 | 51 | 215 | 0.0 | 0.0 | 0.00 | 0.00 | 0.00 | 89 | 1011.3 |
| 20260510044842 | 51 | 360 | 0.0 | 0.0 | 0.00 | 0.00 | 0.00 | 88 | 1011.3 |
| 20260510043828 | 51 | 360 | 0.0 | 0.0 | 0.00 | 0.00 | 0.00 | 88 | 1011.4 |
| 20260510042821 | 52 | 215 | 0.0 | 0.0 | 0.00 | 0.00 | 0.00 | 88 | 1011.4 |
| 20260510041832 | 53 | 215 | 0.0 | 0.0 | 0.00 | 0.00 | 0.00 | 88 | 1011.3 |
| 20260510040815 | 53 | 215 | 0.0 | 0.0 | 0.00 | 0.00 | 0.00 | 89 | 1011.4 |
| 20260510035830 | 52 | 360 | 0.0 | 0.0 | 0.00 | 0.00 | 0.00 | 88 | 1011.4 |
| 20260510034813 | 52 | 360 | 0.0 | 0.0 | 0.00 | 0.00 | 0.00 | 87 | 1011.4 |
| 20260510033853 | 53 | 215 | 0.0 | 0.0 | 0.00 | 0.00 | 0.00 | 86 | 1011.4 |
| 20260510032814 | 53 | 360 | 0.0 | 0.0 | 0.00 | 0.00 | 0.00 | 86 | 1011.5 |
| 20260510031836 | 54 | 215 | 0.0 | 0.0 | 0.00 | 0.00 | 0.00 | 87 | 1011.5 |
| 20260510030817 | 54 | 215 | 0.0 | 0.0 | 0.00 | 0.00 | 0.00 | 87 | 1011.4 |
| 20260510025835 | 54 | 215 | 0.0 | 0.0 | 0.00 | 0.00 | 0.00 | 86 | 1011.4 |
| 20260510024846 | 54 | 215 | 0.0 | 0.0 | 0.00 | 0.00 | 0.00 | 86 | 1011.3 |
| 20260510023837 | 55 | 216 | 0.0 | 0.0 | 0.00 | 0.00 | 0.00 | 85 | 1011.3 |
| 20260510022827 | 55 | 216 | 0.0 | 0.0 | 0.00 | 0.00 | 0.00 | 86 | 1011.2 |
| 20260510021822 | 55 | 216 | 0.0 | 0.0 | 0.00 | 0.00 | 0.00 | 85 | 1011.1 |
| 20260510020835 | 55 | 216 | 0.0 | 0.0 | 0.00 | 0.00 | 0.00 | 85 | 1011.1 |
| 20260510015821 | 55 | 216 | 0.0 | 0.0 | 0.00 | 0.00 | 0.00 | 85 | 1011.0 |
| 20260510014832 | 55 | 360 | 0.0 | 0.0 | 0.00 | 0.00 | 0.00 | 85 | 1011.0 |
| 20260510013815 | 56 | 216 | 0.0 | 0.0 | 0.00 | 0.00 | 0.00 | 84 | 1010.9 |
| 20260510012826 | 56 | 216 | 0.0 | 0.0 | 0.00 | 0.00 | 0.00 | 84 | 1010.7 |
| 20260510011818 | 56 | 216 | 0.0 | 0.0 | 0.00 | 0.00 | 0.00 | 83 | 1010.7 |
| 20260510010825 | 57 | 216 | 0.0 | 0.0 | 0.00 | 0.00 | 0.00 | 83 | 1010.5 |
| 20260510005832 | 57 | 216 | 0.0 | 0.0 | 0.00 | 0.00 | 0.00 | 83 | 1010.3 |
| 20260510004822 | 57 | 216 | 0.0 | 0.0 | 0.00 | 0.00 | 0.00 | 82 | 1010.2 |
| 20260510003813 | 58 | 216 | 0.0 | 0.0 | 0.00 | 0.00 | 0.00 | 82 | 1010.2 |
| 20260510002826 | 58 | 216 | 0.0 | 0.0 | 0.00 | 0.00 | 0.00 | 81 | 1010.1 |
| 20260510001821 | 58 | 216 | 0.0 | 0.0 | 0.00 | 0.00 | 0.00 | 81 | 1010.0 |
| 20260510000835 | 59 | 216 | 0.0 | 0.0 | 0.00 | 0.00 | 0.00 | 80 | 1010.0 |
| 20260509235819 | 59 | 216 | 0.0 | 1.0 | 0.00 | 0.00 | 0.00 | 80 | 1010.1 |
| 20260509234833 | 60 | 216 | 1.0 | 1.0 | 0.00 | 0.00 | 0.00 | 78 | 1010.0 |
| 20260509233815 | 61 | 113 | 0.0 | 0.0 | 0.00 | 0.00 | 0.00 | 78 | 1010.1 |
| 20260509232827 | 61 | 113 | 0.0 | 1.0 | 0.00 | 0.00 | 0.00 | 77 | 1010.1 |
| 20260509231850 | 62 | 113 | 1.0 | 3.0 | 0.00 | 0.00 | 0.00 | 76 | 1010.0 |
| 20260509230840 | 63 | 42 | 0.0 | 2.0 | 0.00 | 0.00 | 0.00 | 75 | 1009.9 |
| 20260509225826 | 64 | 42 | 1.0 | 4.0 | 0.00 | 0.00 | 0.00 | 74 | 1009.9 |
| 20260509224841 | 64 | 78 | 1.0 | 3.0 | 0.00 | 0.00 | 0.00 | 75 | 1010.0 |
| 20260509223825 | 64 | 121 | 0.0 | 5.0 | 0.00 | 0.00 | 0.00 | 74 | 1009.9 |
| 20260509222818 | 64 | 9 | 0.0 | 0.0 | 0.00 | 0.00 | 0.00 | 75 | 1009.9 |
| 20260509221831 | 64 | 63 | 0.0 | 0.0 | 0.00 | 0.00 | 0.00 | 75 | 1009.9 |
| 20260509220825 | 63 | 63 | 0.0 | 1.0 | 0.00 | 0.00 | 0.00 | 75 | 1010.0 |
| 20260509215830 | 62 | 19 | 0.0 | 2.0 | 0.00 | 0.00 | 0.00 | 77 | 1010.0 |
| 20260509214822 | 61 | 23 | 0.0 | 2.0 | 0.00 | 0.00 | 0.00 | 77 | 1010.1 |
| 20260509213814 | 61 | 43 | 0.0 | 3.0 | 0.00 | 0.00 | 0.00 | 77 | 1010.2 |
| 20260509212847 | 61 | 44 | 1.0 | 4.0 | 0.00 | 0.00 | 0.00 | 79 | 1010.2 |
| 20260509211819 | 61 | 26 | 1.0 | 3.0 | 0.00 | 0.00 | 0.00 | 78 | 1010.1 |
| 20260509210846 | 60 | 38 | 3.0 | 4.0 | 0.00 | 0.00 | 0.00 | 79 | 1010.1 |
| 20260509205902 | 60 | 88 | 0.0 | 3.0 | 0.00 | 0.00 | 0.00 | 79 | 1010.1 |
| 20260509204822 | 60 | 76 | 1.0 | 5.0 | 0.00 | 0.00 | 0.00 | 79 | 1010.2 |
| 20260509203814 | 60 | 33 | 1.0 | 3.0 | 0.00 | 0.00 | 0.00 | 77 | 1010.2 |
| 20260509202825 | 60 | 32 | 1.0 | 4.0 | 0.00 | 0.00 | 0.00 | 79 | 1010.3 |
| 20260509201817 | 60 | 39 | 1.0 | 3.0 | 0.00 | 0.00 | 0.00 | 78 | 1010.4 |
| 20260509200829 | 61 | 34 | 2.0 | 4.0 | 0.00 | 0.00 | 0.00 | 77 | 1010.5 |
| 20260509195830 | 61 | 48 | 2.0 | 4.0 | 0.00 | 0.00 | 0.00 | 77 | 1010.4 |
| 20260509194825 | 61 | 108 | 1.0 | 2.0 | 0.00 | 0.00 | 0.00 | 77 | 1010.5 |
| 20260509193816 | 61 | 132 | 1.0 | 3.0 | 0.00 | 0.00 | 0.00 | 77 | 1010.5 |
| 20260509192828 | 61 | 78 | 0.0 | 2.0 | 0.00 | 0.00 | 0.00 | 77 | 1010.7 |
| 20260509191823 | 62 | 126 | 1.0 | 3.0 | 0.00 | 0.00 | 0.00 | 76 | 1010.5 |
| 20260509190834 | 61 | 341 | 1.0 | 3.0 | 0.00 | 0.00 | 0.00 | 78 | 1010.4 |
| 20260509185836 | 60 | 85 | 1.0 | 2.0 | 0.00 | 0.00 | 0.00 | 77 | 1010.6 |
| 20260509184827 | 60 | 83 | 1.0 | 2.0 | 0.00 | 0.00 | 0.00 | 79 | 1010.9 |
| 20260509183821 | 59 | 82 | 0.0 | 3.0 | 0.00 | 0.00 | 0.00 | 81 | 1011.1 |
| 20260509182815 | 59 | 82 | 2.0 | 3.0 | 0.00 | 0.00 | 0.00 | 79 | 1011.4 |
| 20260509181844 | 59 | 38 | 1.0 | 4.0 | 0.00 | 0.00 | 0.00 | 78 | 1011.6 |
| 20260509180816 | 59 | 327 | 1.0 | 4.0 | 0.00 | 0.00 | 0.00 | 76 | 1012.1 |
| 20260509175822 | 59 | 31 | 3.0 | 5.0 | 0.00 | 0.00 | 0.00 | 75 | 1011.9 |
| 20260509174817 | 59 | 35 | 2.0 | 4.0 | 0.00 | 0.00 | 0.00 | 74 | 1011.8 |
| 20260509173836 | 59 | 29 | 4.0 | 7.0 | 0.00 | 0.00 | 0.00 | 73 | 1011.8 |
| 20260509172828 | 59 | 34 | 3.0 | 5.0 | 0.00 | 0.00 | 0.00 | 73 | 1012.0 |
| 20260509171839 | 59 | 36 | 1.0 | 5.0 | 0.00 | 0.00 | 0.00 | 73 | 1012.2 |
| 20260509170852 | 59 | 26 | 1.0 | 4.0 | 0.00 | 0.00 | 0.00 | 72 | 1012.0 |
| 20260509165838 | 59 | 40 | 3.0 | 5.0 | 0.00 | 0.00 | 0.00 | 72 | 1012.2 |
| 20260509164849 | 59 | 35 | 3.0 | 7.0 | 0.00 | 0.00 | 0.00 | 74 | 1012.1 |
| 20260509163821 | 60 | 344 | 2.0 | 4.0 | 0.00 | 0.00 | 0.00 | 71 | 1012.3 |
| 20260509162815 | 60 | 58 | 2.0 | 5.0 | 0.00 | 0.00 | 0.00 | 71 | 1012.2 |
| 20260509161827 | 60 | 319 | 3.0 | 4.0 | 0.00 | 0.00 | 0.00 | 72 | 1012.2 |
| 20260509160823 | 60 | 151 | 2.0 | 6.0 | 0.00 | 0.00 | 0.00 | 70 | 1012.2 |
| 20260509155829 | 60 | 32 | 1.0 | 5.0 | 0.00 | 0.00 | 0.00 | 73 | 1012.1 |
| 20260509154821 | 59 | 205 | 1.0 | 4.0 | 0.00 | 0.00 | 0.00 | 75 | 1012.0 |
| 20260509153832 | 58 | 259 | 1.0 | 3.0 | 0.00 | 0.00 | 0.00 | 80 | 1012.1 |
| 20260509152815 | 57 | 28 | 1.0 | 3.0 | 0.00 | 0.00 | 0.00 | 82 | 1011.9 |
| 20260509151838 | 56 | 67 | 1.0 | 3.0 | 0.00 | 0.00 | 0.00 | 81 | 1012.2 |
| 20260509150832 | 56 | 171 | 1.0 | 3.0 | 0.00 | 0.00 | 0.00 | 81 | 1012.6 |
| 20260509145837 | 55 | 219 | 0.0 | 2.0 | 0.00 | 0.00 | 0.00 | 82 | 1012.9 |
| 20260509144836 | 55 | 179 | 1.0 | 2.0 | 0.00 | 0.00 | 0.00 | 83 | 1013.1 |
| 20260509143822 | 55 | 185 | 0.0 | 1.0 | 0.00 | 0.00 | 0.00 | 83 | 1012.9 |
| 20260509142818 | 55 | 159 | 0.0 | 1.0 | 0.00 | 0.00 | 0.00 | 83 | 1012.7 |
| 20260509141815 | 55 | 314 | 0.0 | 0.0 | 0.00 | 0.00 | 0.00 | 82 | 1012.8 |
| 20260509140833 | 55 | 265 | 0.0 | 2.0 | 0.00 | 0.00 | 0.00 | 81 | 1012.6 |
| 20260509135826 | 55 | 19 | 0.0 | 2.0 | 0.00 | 0.00 | 0.00 | 81 | 1012.3 |
| 20260509134816 | 56 | 198 | 0.0 | 2.0 | 0.00 | 0.00 | 0.00 | 80 | 1012.2 |
| 20260509133829 | 56 | 188 | 0.0 | 2.0 | 0.00 | 0.00 | 0.00 | 77 | 1012.3 |
| 20260509132822 | 56 | 188 | 0.0 | 2.0 | 0.00 | 0.00 | 0.00 | 75 | 1012.4 |
| 20260509131837 | 56 | 166 | 1.0 | 3.0 | 0.00 | 0.00 | 0.00 | 75 | 1012.2 |
| 20260509130829 | 56 | 155 | 1.0 | 3.0 | 0.00 | 0.00 | 0.00 | 75 | 1012.2 |
| 20260509125818 | 56 | 146 | 2.0 | 3.0 | 0.00 | 0.00 | 0.00 | 75 | 1012.2 |
| 20260509124818 | 56 | 86 | 1.0 | 3.0 | 0.00 | 0.00 | 0.00 | 76 | 1012.1 |
| 20260509123814 | 56 | 121 | 2.0 | 3.0 | 0.00 | 0.00 | 0.00 | 75 | 1012.2 |
| 20260509122826 | 56 | 86 | 2.0 | 3.0 | 0.00 | 0.00 | 0.00 | 75 | 1012.1 |
| 20260509121840 | 56 | 173 | 2.0 | 4.0 | 0.00 | 0.00 | 0.00 | 75 | 1012.0 |
| 20260509120825 | 55 | 172 | 2.0 | 3.0 | 0.00 | 0.00 | 0.00 | 75 | 1012.1 |
| 20260509115841 | 55 | 173 | 1.0 | 3.0 | 0.00 | 0.00 | 0.00 | 76 | 1012.2 |
| 20260509114826 | 55 | 172 | 2.0 | 4.0 | 0.00 | 0.00 | 0.00 | 76 | 1012.0 |
| 20260509113819 | 54 | 187 | 0.0 | 0.0 | 0.00 | 0.00 | 0.00 | 76 | 1012.0 |
| 20260509112900 | 54 | 187 | 0.0 | 0.0 | 0.00 | 0.00 | 0.00 | 75 | 1011.9 |
| 20260509111850 | 54 | 187 | 0.0 | 0.0 | 0.00 | 0.00 | 0.00 | 74 | 1011.8 |
| 20260509110842 | 54 | 187 | 0.0 | 0.0 | 0.00 | 0.00 | 0.00 | 74 | 1011.7 |
| 20260509105828 | 54 | 187 | 0.0 | 0.0 | 0.00 | 0.00 | 0.00 | 74 | 1011.6 |
| 20260509104840 | 54 | 187 | 0.0 | 0.0 | 0.00 | 0.00 | 0.00 | 74 | 1011.5 |
| 20260509103826 | 54 | 187 | 0.0 | 0.0 | 0.00 | 0.00 | 0.00 | 74 | 1011.6 |
| 20260509102820 | 54 | 187 | 0.0 | 0.0 | 0.00 | 0.00 | 0.00 | 73 | 1011.4 |
| 20260509101830 | 53 | 187 | 0.0 | 0.0 | 0.00 | 0.00 | 0.00 | 74 | 1011.4 |
| 20260509100841 | 54 | 187 | 0.0 | 0.0 | 0.00 | 0.00 | 0.00 | 72 | 1011.3 |
| 20260509095826 | 54 | 187 | 0.0 | 0.0 | 0.00 | 0.00 | 0.00 | 73 | 1011.3 |
| 20260509094816 | 54 | 187 | 0.0 | 2.0 | 0.00 | 0.00 | 0.00 | 71 | 1011.2 |
| 20260509093828 | 54 | 187 | 1.0 | 2.0 | 0.00 | 0.00 | 0.00 | 71 | 1011.3 |
| 20260509092840 | 54 | 187 | 1.0 | 2.0 | 0.00 | 0.00 | 0.00 | 71 | 1011.4 |
| 20260509091853 | 54 | 187 | 1.0 | 2.0 | 0.00 | 0.00 | 0.00 | 71 | 1011.4 |